Hauptseite
METAR-TAF:

METAR-TAF

Flughäfen :

Bohrplattform

Troll C, Norwegen

Breite: 60-53-09N, Länge: 3-36-35E, Höhe: 20 m

Beobachtung

Neuester Wetterbericht von vor 28 Minuten, um 19:50 UTC
Wind 34 kt aus West/Nordwest
Temperatur 5°C
Luftfeuchtigkeit 87%
Luftdruck 1007 hPa
Sichtweite: 8000 m
Regenschauer

METAR: ENQC 201950Z AUTO 29034KT 8000NDV -SHRA BKN012/// 05/03 Q1007 W///S4

Zeit: 21:18 (20:18 UTC)


TAF: fehlend

Wetterbeobachtungen und Prognosen von mehr als 4000 Flughäfen (METAR und TAF Bericht).

Die verfügbaren Stationen werden durch gelbe und rote Markierungen auf der Karte dargestellt.

Führen Sie die Maus auf sie, um den Namen der Station zu sehen.

Darauf klicken, um die Beobachtung von Wetterbeobachtungen und Prognosen zu sehen.

Um die Karte zu ändern : klicken Sie auf den grünen Tasten mit einem schwarzen Kreuz Zum Vergrößern, auf den grünen Button mit einem Gedankenstrich zu verkleinern, oder auf die grünen Pfeile für benachbarte Karten.


METAR-TAF: